Location: Drignac
(45.1667°N, 2.0333°E)
Time: 06:05:15
(UTC+00:00)

Cosmos 1953 - Pass Details

Date: 29 March 2020
Orbit: 539 x 557 km, 82.5° (Epoch: 29 May)

Event Time Altitude Azimuth Distance (km) Brightness Sun altitude
Exits shadow 20:27:33 43° 210° (SSW) 761 2.9 -22.6°
Maximum altitude 20:28:42 71° 280° (W) 577 2.5 -22.8°
Drops below altitude 10° 20:32:41 10° 4° (N) 1,816 5.3 -23.3°
Sets 20:34:52 0° 7° (N) 2,716 6.2 -23.7°
